User: anonymous   Login
Location: Newark
(13.8625°N, 100.5144°E)
Time: 03:30:29
(UTC+00:00)
Language:

AEROCUBE 8C - Orbit

View from above orbital plane
View from above orbital plane
View from above satellite
View from above satellite

Ground track
Ground track

The orbit data is extracted from the following two-line orbital elements,

1 41853U 16067F   21332.59807367  .00000522  00000-0  50214-4 0  9992
2 41853  97.9712  94.1269 0009004 292.4090  67.6177 14.97418562275621
Epoch (UTC): 28 November 2021 14:21:13
Eccentricity: 0.0009004
inclination: 97.9712°
perigee height: 568 km
apogee height: 581 km
right ascension of ascending node: 94.1269°
argument of perigee: 292.4090°
revolutions per day: 14.97418562
mean anomaly at epoch: 67.6177°
orbit number at epoch: 27562

The dashed part of the orbit path shows where the satellite is in the earth's shadow,  

DLR